| time (UTC) | temp F | wind direction | speed MPH | gust MPH | rain 1hr in | rain 24hr in | rain mn in | humidity % | barometer mb |
| 20260506044546 | 75 | 360 | 1.0 | 3.0 | 0.00 | 0.00 | 0.00 | 73 | 1012.5 |
| 20260506043043 | 75 | 0 | 1.0 | 4.0 | 0.00 | 0.00 | 0.00 | 72 | 1012.7 |
| 20260506041538 | 75 | 360 | 1.0 | 4.0 | 0.00 | 0.00 | 0.00 | 77 | 1012.4 |
| 20260506040046 | 74 | 360 | 0.0 | 3.0 | 0.00 | 0.00 | 0.00 | 84 | 1012.2 |
| 20260506034542 | 73 | 0 | 0.0 | 0.0 | 0.00 | 0.00 | 0.00 | 85 | 1012.0 |
| 20260506033041 | 73 | 0 | 0.0 | 0.0 | 0.00 | 0.00 | 0.00 | 85 | 1012.3 |
| 20260506031548 | 73 | 0 | 0.0 | 0.0 | 0.00 | 0.00 | 0.00 | 85 | 1012.4 |
| 20260506030045 | 73 | 0 | 0.0 | 0.0 | 0.00 | 0.00 | 0.00 | 84 | 1012.3 |
| 20260506024546 | 73 | 0 | 0.0 | 0.0 | 0.00 | 0.00 | 0.00 | 85 | 1012.1 |
| 20260506023041 | 74 | 0 | 0.0 | 0.0 | 0.00 | 0.00 | 0.00 | 85 | 1012.0 |
| 20260506021556 | 74 | 0 | 0.0 | 0.0 | 0.00 | 0.00 | 0.00 | 83 | 1011.9 |
| 20260506020038 | 75 | 0 | 0.0 | 0.0 | 0.00 | 0.00 | 0.00 | 82 | 1011.6 |
| 20260506014539 | 75 | 0 | 0.0 | 2.0 | 0.00 | 0.00 | 0.00 | 82 | 1011.3 |
| 20260506013047 | 75 | 0 | 0.0 | 3.0 | 0.00 | 0.00 | 0.00 | 81 | 1011.4 |
| 20260506011554 | 76 | 0 | 0.0 | 5.0 | 0.00 | 0.00 | 0.00 | 80 | 1011.2 |
| 20260506010042 | 76 | 360 | 0.0 | 5.0 | 0.00 | 0.00 | 0.00 | 80 | 1011.2 |
| 20260506004538 | 76 | 0 | 0.0 | 4.0 | 0.00 | 0.00 | 0.00 | 79 | 1011.0 |
| 20260506003040 | 76 | 360 | 1.0 | 5.0 | 0.00 | 0.00 | 0.00 | 79 | 1010.8 |
| 20260506001541 | 77 | 360 | 1.0 | 8.0 | 0.00 | 0.00 | 0.00 | 78 | 1010.8 |
| 20260506000046 | 77 | 360 | 1.0 | 6.0 | 0.00 | 0.00 | 0.00 | 77 | 1010.6 |
| 20260505234542 | 78 | 0 | 3.0 | 9.0 | 0.00 | 0.00 | 0.00 | 76 | 1010.5 |
| 20260505233040 | 78 | 360 | 2.0 | 6.0 | 0.00 | 0.00 | 0.00 | 75 | 1010.2 |
| 20260505231548 | 79 | 32 | 2.0 | 10.0 | 0.00 | 0.00 | 0.00 | 73 | 1010.2 |
| 20260505230039 | 80 | 350 | 3.0 | 9.0 | 0.00 | 0.00 | 0.00 | 73 | 1010.1 |
| 20260505224542 | 80 | 0 | 3.0 | 11.0 | 0.00 | 0.00 | 0.00 | 72 | 1010.4 |
| 20260505223040 | 81 | 272 | 2.0 | 8.0 | 0.00 | 0.00 | 0.00 | 71 | 1010.4 |
| 20260505221541 | 82 | 334 | 2.0 | 10.0 | 0.00 | 0.00 | 0.00 | 70 | 1010.4 |
| 20260505220051 | 82 | 279 | 3.0 | 9.0 | 0.00 | 0.00 | 0.00 | 70 | 1010.4 |
| 20260505214602 | 83 | 294 | 1.0 | 9.0 | 0.00 | 0.00 | 0.00 | 70 | 1010.5 |
| 20260505213042 | 82 | 0 | 2.0 | 8.0 | 0.00 | 0.00 | 0.00 | 71 | 1010.3 |
| 20260505211545 | 82 | 335 | 2.0 | 7.0 | 0.00 | 0.00 | 0.00 | 70 | 1010.2 |
| 20260505210038 | 83 | 268 | 2.0 | 8.0 | 0.00 | 0.00 | 0.00 | 69 | 1010.0 |
| 20260505204546 | 83 | 252 | 2.0 | 10.0 | 0.00 | 0.00 | 0.00 | 68 | 1010.1 |
| 20260505203042 | 84 | 315 | 3.0 | 9.0 | 0.00 | 0.00 | 0.00 | 68 | 1010.4 |
| 20260505201545 | 84 | 351 | 2.0 | 8.0 | 0.00 | 0.00 | 0.00 | 69 | 1010.5 |
| 20260505200044 | 84 | 215 | 1.0 | 8.0 | 0.00 | 0.00 | 0.00 | 68 | 1010.6 |
| 20260505194544 | 85 | 250 | 2.0 | 8.0 | 0.00 | 0.00 | 0.00 | 67 | 1010.8 |
| 20260505193038 | 84 | 284 | 3.0 | 10.0 | 0.00 | 0.00 | 0.00 | 68 | 1010.9 |
| 20260505191545 | 83 | 250 | 2.0 | 8.0 | 0.00 | 0.00 | 0.00 | 68 | 1011.0 |
| 20260505190043 | 84 | 251 | 3.0 | 9.0 | 0.00 | 0.00 | 0.00 | 65 | 1010.9 |
| 20260505184542 | 84 | 307 | 2.0 | 8.0 | 0.00 | 0.00 | 0.00 | 67 | 1011.0 |
| 20260505183052 | 84 | 141 | 3.0 | 9.0 | 0.00 | 0.00 | 0.00 | 62 | 1011.1 |
| 20260505181540 | 84 | 225 | 3.0 | 9.0 | 0.00 | 0.00 | 0.00 | 63 | 1011.2 |
| 20260505180046 | 83 | 157 | 4.0 | 8.0 | 0.00 | 0.00 | 0.00 | 62 | 1011.5 |
| 20260505174545 | 82 | 232 | 3.0 | 8.0 | 0.00 | 0.00 | 0.00 | 64 | 1011.8 |
| 20260505173042 | 82 | 207 | 4.0 | 8.0 | 0.00 | 0.00 | 0.00 | 65 | 1012.0 |
| 20260505171545 | 82 | 232 | 3.0 | 8.0 | 0.00 | 0.00 | 0.00 | 64 | 1012.0 |
| 20260505170037 | 81 | 281 | 1.0 | 8.0 | 0.00 | 0.00 | 0.00 | 65 | 1012.1 |
| 20260505164542 | 81 | 192 | 4.0 | 9.0 | 0.00 | 0.00 | 0.00 | 65 | 1012.2 |
| 20260505163040 | 82 | 214 | 2.0 | 10.0 | 0.00 | 0.00 | 0.00 | 64 | 1012.2 |
| 20260505161542 | 81 | 248 | 3.0 | 10.0 | 0.00 | 0.00 | 0.00 | 65 | 1012.4 |
| 20260505153037 | 80 | 115 | 1.0 | 4.0 | 0.00 | 0.00 | 0.00 | 67 | 1012.5 |
| 20260505151542 | 80 | 99 | 1.0 | 4.0 | 0.00 | 0.00 | 0.00 | 67 | 1012.4 |
| 20260505140106 | 77 | 120 | 1.0 | 6.0 | 0.00 | 0.00 | 0.00 | 74 | 1012.0 |
| 20260505124606 | 73 | 360 | 1.0 | 5.0 | 0.00 | 0.00 | 0.00 | 81 | 1011.6 |
| 20260505123056 | 72 | 360 | 1.0 | 4.0 | 0.00 | 0.00 | 0.00 | 82 | 1011.8 |
| 20260505121542 | 72 | 360 | 1.0 | 4.0 | 0.00 | 0.00 | 0.00 | 83 | 1011.7 |
| 20260505120046 | 71 | 0 | 0.0 | 3.0 | 0.00 | 0.00 | 0.00 | 84 | 1011.7 |
| 20260505114544 | 71 | 360 | 0.0 | 2.0 | 0.00 | 0.00 | 0.00 | 85 | 1011.4 |
| 20260505113041 | 70 | 0 | 0.0 | 3.0 | 0.00 | 0.00 | 0.00 | 85 | 1011.2 |
| 20260505111542 | 70 | 0 | 0.0 | 4.0 | 0.00 | 0.00 | 0.00 | 87 | 1010.9 |
| 20260505101550 | 69 | 0 | 0.0 | 0.0 | 0.00 | 0.00 | 0.00 | 87 | 1010.5 |
| 20260505100044 | 69 | 0 | 0.0 | 0.0 | 0.00 | 0.00 | 0.00 | 86 | 1010.3 |
| 20260505094541 | 70 | 0 | 0.0 | 0.0 | 0.00 | 0.00 | 0.00 | 86 | 1010.1 |
| 20260505093038 | 69 | 0 | 0.0 | 0.0 | 0.00 | 0.00 | 0.00 | 86 | 1010.0 |
| 20260505091557 | 69 | 0 | 0.0 | 0.0 | 0.00 | 0.00 | 0.00 | 86 | 1009.9 |
| 20260505090040 | 70 | 0 | 0.0 | 2.0 | 0.00 | 0.00 | 0.00 | 86 | 1009.9 |
| 20260505084543 | 70 | 0 | 0.0 | 2.0 | 0.00 | 0.00 | 0.00 | 85 | 1009.8 |
| 20260505083046 | 70 | 360 | 0.0 | 0.0 | 0.00 | 0.00 | 0.00 | 85 | 1009.9 |
| 20260505081538 | 70 | 360 | 1.0 | 4.0 | 0.00 | 0.00 | 0.00 | 84 | 1009.8 |
| 20260505080044 | 70 | 360 | 1.0 | 4.0 | 0.00 | 0.00 | 0.00 | 84 | 1009.7 |
| 20260505074537 | 70 | 0 | 1.0 | 4.0 | 0.00 | 0.00 | 0.00 | 83 | 1010.0 |
| 20260505073044 | 71 | 360 | 0.0 | 4.0 | 0.00 | 0.00 | 0.00 | 82 | 1010.2 |
| 20260505071553 | 71 | 0 | 1.0 | 4.0 | 0.00 | 0.00 | 0.00 | 82 | 1010.2 |
| 20260505070045 | 71 | 0 | 1.0 | 4.0 | 0.00 | 0.00 | 0.00 | 82 | 1010.4 |
| 20260505064541 | 71 | 360 | 1.0 | 3.0 | 0.00 | 0.00 | 0.00 | 82 | 1010.3 |
| 20260505063038 | 71 | 360 | 0.0 | 4.0 | 0.00 | 0.00 | 0.00 | 81 | 1010.6 |
| 20260505061546 | 71 | 360 | 1.0 | 4.0 | 0.00 | 0.00 | 0.00 | 80 | 1010.9 |
| 20260505060050 | 72 | 0 | 1.0 | 5.0 | 0.00 | 0.00 | 0.00 | 79 | 1011.2 |
| 20260505054546 | 72 | 360 | 1.0 | 4.0 | 0.00 | 0.00 | 0.00 | 78 | 1011.3 |
| 20260505053042 | 72 | 0 | 1.0 | 3.0 | 0.00 | 0.00 | 0.00 | 77 | 1011.1 |